www.pogodaiklimat.ru

Погода и климат >> Архив погоды >> Канада >> Vancouver


АРХИВ ПОГОДЫ в Vancouver

Время (UTC), дата Ветер
(напр.,м/с)
 
Видим.   Явления Облачность Т
(С)
Тd
(С)
f
(%)
Тe
(С)
Тes
(С)
Комфортность P
(гПа)
Po
(гПа)
Тmin
(С)
Tmax
(С)
R
(мм)
R24
(мм)
S
(см)
03 13.02 СЗ 1 30 км 3/0
[]
+1.2 -5.7 60 -0 -0 прохладно 1027.9 1027.4
06 13.02 С 1 30 км 8/0
[Cs]
+0.8 -4.2 69 +1 +1 по сезону 1028.4 1027.9 -3.1 +4.3 8
09 13.02 В 3 30 км 3/0
[]
+0.1 -4.1 73 -4 -4 холодно 1028.4 1027.9
12 13.02 В 3 30 км 1/0
[Ac trans]
-2.1 -4.6 83 -7 -7 холодно 1027.9 1027.4 -2.4 +4.3
15 13.02 В 3 45 км 10/10 1500 м
[]
-0.3 -3.7 78 -5 -5 холодно 1026.9 1026.4
18 13.02 В 4 40 км 10/0 2000 м
[Ac As Cc]
+3.0 -3.2 64 -1 0 прохладно 1026.2 1025.7 -2.4 +3.2
21 13.02 В 4 45 км 10/0
[]
+5.0 -5.4 47 +2 +4 по сезону 1023.7 1023.2
00 14.02 ЮВ 3 45 км 10/0
[Ac As]
+4.5 -4.2 53 +1 +2 прохладно 1020.7 1020.2 -2.4 +5.9
03 14.02 В 6 24 км 10/10 600 м
[]
+3.4 -1.6 70 -2 -2 холодно 1018.4 1017.9
06 14.02 3600 м слабый снег {дождь} н/о +0.8 0.0 94 -6 -6 очень
холодно
1015.6 1015.1 -2.4 +5.9 0.6 5
09 14.02 СВ 6 2000 м 8/8 50 м
[]
+0.7 +0.3 97 -6 -6 холодно 1014.2 1013.7
12 14.02 В 3 11 км слабый снег 10/10 300 м
[Sc]
+1.4 +1.0 97 -3 -3 прохладно 1014.1 1013.6 +0.4 +5.9 5 1
15 14.02 СЗ 2 19 км 10/10 200 м
[]
+2.1 +1.8 98 -1 -1 прохладно 1015.5 1015.0
18 14.02 СЗ 2 24 км {снег, дождь} 9/9 200 м
[Cu Sc Ac trans]
+3.8 +2.5 91 +1 +1 по сезону 1017.9 1017.4 +0.4 +3.8 1
21 14.02 З 8 45 км 1/1 200 м
[]
+5.8 +2.6 80 0 +1 прохладно 1019.1 1018.6
00 15.02 З 6 45 км 1/1 300 м
[Cu hum]
+5.8 +2.4 79 +1 +1 прохладно 1019.6 1019.1 +0.4 +6.4
03 15.02 З 6 30 км 3/3 600 м
[]
+4.5 +1.6 81 -1 -1 прохладно 1020.8 1020.3
06 15.02 В 4 30 км 5/5 300 м
[Sc]
+1.9 +0.8 92 -3 -3 прохладно 1023.2 1022.7 +0.4 +6.4 22
09 15.02 СВ 2 30 км 1/1 1000 м
[]
+1.8 +0.6 92 -1 -1 по сезону 1026.2 1025.7
12 15.02 В 2 30 км 1/1 300 м
[Sc]
0.0 -1.2 92 -3 -3 прохладно 1027.7 1027.2 -0.4 +6.4
15 15.02 В 1 45 км 10/10 600 м
[]
+0.4 -0.5 94 -2 -2 прохладно 1029.6 1029.1
18 15.02 В 2 45 км 10/6 600 м
[Sc Cs]
+3.0 +0.5 84 -0 +1 прохладно 1031.2 1030.7 -1.2 +3.0
21 15.02 В 4 45 км 10/10 600 м
[]
+5.3 +0.9 73 +1 +1 прохладно 1030.6 1030.1
00 16.02 В 4 45 км 10/10 1000 м
[Sc]
+4.4 +1.3 80 0 0 холодно 1030.1 1029.6 -1.2 +5.3
03 16.02 В 3 30 км 10/10 300 м
[]
+3.8 +1.0 82 0 0 прохладно 1029.6 1029.1
06 16.02 В 3 30 км 10/4 600 м
[Sc Ac As]
+3.1 +1.7 91 -1 -1 прохладно 1028.6 1028.1 -1.2 +5.3
09 16.02 В 3 24 км 10/10 300 м
[]
+3.6 +2.4 92 -0 -0 по сезону 1026.4 1025.9
12 16.02 В 4 24 км слабый дождь 10/10 300 м
[Sc]
+3.5 +2.8 95 -1 -1 по сезону 1023.8 1023.3 +3.0 +5.3 4
15 16.02 СВ 3 24 км 10/10 300 м
[]
+3.1 +2.5 96 -1 -1 прохладно 1021.4 1020.9
18 16.02 СВ 3 24 км {дождь} 10/9 300 м
[Cu Sc Ac As]
+5.1 +3.7 91 +1 +2 по сезону 1021.1 1020.6 +2.9 +5.1 1
21 16.02 ЮЗ 3 45 км 4/4 300 м
[]
+7.0 +3.8 80 +4 +7 по сезону 1020.8 1020.3
00 17.02 З 7 45 км 10/3 600 м
[Cu Sc Cs]
+6.6 +4.3 85 +2 +2 прохладно 1020.8 1020.3 +2.9 +8.5
03 17.02 СЗ 6 30 км 10/10 600 м
[]
+5.5 +3.2 85 +1 +1 прохладно 1021.4 1020.9
06 17.02 СЗ 1 30 км 10/9 300 м
[Sc Ac As]
+4.9 +3.6 91 +3 +3 по сезону 1020.1 1019.6 +2.9 +8.5 22
09 17.02 В 3 30 км 10/10 300 м
[]
+5.0 +3.4 89 +1 +1 по сезону 1018.0 1017.5
12 17.02 Ю 3 16 км дождь 10/8 300 м
[Sc As op]
+4.4 +3.3 93 +1 +1 по сезону 1013.9 1013.4 +4.2 +8.5 5
15 17.02 В 8 16 км 10/10 200 м
[]
+2.9 +2.1 94 -4 -4 холодно 1005.9 1005.4
18 17.02 В 5 24 км слабый дождь {снег} 10/10 100 м
[Sc]
+3.0 +2.4 96 -3 -3 холодно 998.9 998.4 +1.6 +5.5 13
21 17.02 ЮЗ 8 40 км 8/8 300 м
[]
+8.7 +4.3 74 +4 +4 по сезону 997.5 997.0
00 18.02 З 8 45 км {ливн. осадки, дождь} 9/9 300 м
[Cu Sc Ci sp]
+6.4 +2.9 78 +1 +1 прохладно 998.9 998.4 +1.6 +8.8 0.2
03 18.02 СЗ 5 30 км 10/10 1000 м
[]
+5.1 +2.5 83 +1 +1 прохладно 999.6 999.1
06 18.02 Ю 3 16 км слабый дождь 10/10 300 м
[Sc]
+4.3 +2.9 91 0 0 по сезону 999.1 998.6 +1.6 +8.8 0.6 211
09 18.02 В 7 1000 м 10/10 100 м
[]
+0.4 0.0 97 -7 -7 очень
холодно
1001.8 1001.3
12 18.02 В 5 24 км слабый снег {дождь} 10/10 300 м
[Sc]
+1.2 -2.2 78 -4 -4 прохладно 1003.2 1002.7 +0.2 +8.8 11 4
15 18.02 СВ 5 45 км 10/10 1500 м
[]
+0.3 -5.6 65 -5 -5 холодно 1006.8 1006.3
18 18.02 СВ 6 45 км {снег} 6/1 300 м
[Cu hum Ac As]
+0.5 -7.4 55 -5 -4 очень
холодно
1010.7 1010.2 -0.7 +4.9 0.0 4
21 18.02 СВ 5 45 км 5/5 600 м
[]
+1.4 -7.7 51 -4 -2 очень
холодно
1013.1 1012.6
00 19.02 СВ 5 45 км 4/1 600 м
[Cu hum Ac trans Ci sp]
+1.3 -9.2 45 -3 -3 очень
холодно
1014.8 1014.3 -0.7 +1.7 3
03 19.02 СВ 4 30 км 1/0
[]
-1.1 -12.0 43 -6 -6 очень
холодно
1017.1 1016.6
06 19.02 СВ 4 30 км ясно -2.7 -10.1 57 -8 -8 очень
холодно
1019.2 1018.7 -2.9 +4.9 91
09 19.02 В 4 30 км ясно -4.0 -11.6 55 -9 -9 очень
холодно
1020.9 1020.4
12 19.02 В 3 30 км ясно -5.5 -10.9 66 -10 -10 очень
холодно
1022.6 1022.1 -6.1 +4.9 2
15 19.02 В 2 45 км ясно -5.4 -11.6 62 -9 -9 очень
холодно
1024.3 1023.8
18 19.02 В 1 45 км 3/1 600 м
[Sc Ci fib]
-1.8 -11.0 49 -3 0 холодно 1025.8 1025.3 -6.5 -1.8
21 19.02 З 3 45 км 8/8 600 м
[]
-0.2 -8.3 54 -4 -3 очень
холодно
1025.1 1024.6
00 20.02 С 1 45 км 8/1 1000 м
[Cu hum Ac As Cs]
+0.2 -9.0 50 0 +1 холодно 1023.7 1023.2 -6.5 +0.6

 

Местоположение метеостанции Vancouver (Канада): широта 49.20 долгота -123.10 высота над уровнем моря 4 м.

В архиве по умолчанию представлена погода в Vancouver за последнюю неделю. Архивные данные за месяц целиком и за предыдущие месяцы, начиная с января 2011 года, Вы можете получить, выбрав интересующий диапазон дат из раскрывающегося списка и нажав кнопку "Ввод!".

Внимание! Время в таблицах - всемирное. Для получения местного времени необходимо прибавить поправку, которая в Vancouver равна -8 ч.

Смотрите также архив погоды в соседних городах и на ближайших метеорологических станциях:

Погода в Richmond (Канада) (3 км)
Погода в Vancouver Hillcrest (Канада) (3 км)
Погода в Vancouver Sea Island Ccg (Канада) (7 км)
Погода в Vancouver (aut) (Канада) (11 км)
Погода в West Vancouver Camp (Канада) (14 км)
Погода в Point Atkinson (Канада) (17 км)
Погода в Sand Heads (Канада) (18 км)
Погода в Cypress Bowl South (Канада) (21 км)
Погода в Cypress Bowl North (Канада) (23 км)
Погода в Howe Sound (Канада) (32 км)

Пояснения к столбцам:

Ветер - указаны скорость ветра в м/с - средняя за 10 мин, порывы в срок и между сроками (в фигурных скобках) и направление, откуда дует ветер: С - северный, СВ - северо-восточный, В - восточный, ЮВ - юго-восточный, Ю - южный, ЮЗ - юго-западный, З - западный, СЗ - северо-западный.
Видимость - горизонтальная дальность видимости в метрах или километрах. При видимости от 1 до 10 км при отсутствии осадков обычно наблюдается дымка, при ухудшении видимости до 1 км и менее - туман. В сухую погоду видимость может ухудшаться дымом, пылью или мглою.
Явления - указаны атмосферные явления, наблюдавшиеся в срок или в последний час перед сроком; фигурными скобками обозначены явления, наблюдавшиеся между сроками (за 1-3 часа до срока); квадратными скобками обозначены град или гололедные отложения с указанием их диаметра в мм.
Облачность - указаны через наклонную черту общая и нижняя облачность в баллах и высота нижней границы облаков в метрах; квадратными скобками обозначены формы облаков: Ci - перистые, Cs - перисто-слоистые, Cc - перисто-кучевые, Ac - высококучевые, As - высокослоистые, Sc - слоисто-кучевые, Ns - слоисто-дождевые, Cu - кучевые, Cb - кучево-дождевые. Подробнее классификацию облаков см. в Атласе облаков (PDF).
T - Температура воздуха - температура, измеренная на высоте 2 м над землей.
Td - Температура точки росы - температура, при понижении до которой содержащийся в воздухе водяной пар достигнет насыщения.
f - Относительная влажность воздуха - влажноcть воздуха, измеренная на высоте 2 м над землей.
Te - Эффективная температура - температура, которую ощущает одетый по сезону человек в тени. Характеристика душности погоды. При расчете учитывается влияние влажности воздуха и скорости ветра на теплоощущения человека.
Tes - Эффективная температура на солнце - температура, которую ощущает человек, с поправкой на солнечный нагрев. Характеристика знойности погоды. Зависит от высоты солнца над горизонтом, облачности и скорости ветра. Ночью, в пасмурную погоду, а также при ветре 12 м/с и более поправка равна нулю.
P - Атмосферное давление - приведенное к уровню моря атмосферное давление.
Po - Атмосферное давление - измеренное на уровне метеостанции атмосферное давление.
Tmin - Минимальная температура - минимум температуры воздуха на высоте 2 м над землей.
Tmax - Максимальная температура - максимум температуры воздуха на высоте 2 м над землей.
R - Количество осадков - Количество выпавших осадков за период времени, мм. При наведении курсора мыши на число - период времени, за который выпало указанное количество осадков.
R24 - Количество осадков - Количество выпавших осадков за 24 часа, мм.
S - Снежный покров - Высота снежного покрова, см. При наведении курсора мыши на число - состояние снежного покрова и степень покрытия местности в баллах.